QPF
0.00 0.00 0.00 0.00 0.00 0.00 0.00 0.00 0.00 0.00 0.00 0.00 0.00 0.00 0.00 0.00 0.00 0.00 0.00 0.00 0.00 0.00 0.00 0.00 0.00 0.00 0.00 0.00 0.00 0.00 0.00 0.00 0.00 0.00 0.00 0.00 0.00 0.00 0.00 0.00 0.00 0.00 0.00 0.00 0.00 0.00 0.00
0.00 0.00 0.00 0.00 0.00 0.00 0.00 0.00 0.00 0.00 0.00 0.00 0.00 0.00 0.00 0.00 0.00 0.00 0.00 0.00 0.00 0.00 0.00 0.00 0.00 0.00 0.00 0.00 0.00 0.00 0.00 0.00 0.00 0.00 0.00 0.00 0.00 0.00 0.00 0.00 0.00 0.00 0.00 0.00 0.00 0.00 0.00
0.00 0.00 0.00 0.00 0.00 0.00 0.00 0.00 0.00 0.00 0.00 0.00 0.00 0.00 0.00 0.00 0.00 0.00 0.00 0.00 0.00 0.00 0.00 0.00 0.00 0.00 0.00 0.00 0.00 0.00 0.00 0.00 0.00 0.00 0.00 0.00 0.00 0.00 0.00 0.00 0.00 0.00 0.00 0.00 0.00 0.00 0.00
0.00 0.00 0.00 0.00 0.00 0.00 0.00 0.00 0.00 0.00 0.00 0.00 0.00 0.00 0.00 0.00 0.00 0.00 0.00 0.00 0.00 0.00 0.00 0.00 0.00 0.00 0.00 0.00 0.00 0.00 0.00 0.00 0.00 0.00 0.00 0.00 0.00 0.00 0.00 0.00 0.00 0.00 0.00 0.00 0.00 0.00 0.00
0.00 0.00 0.00 0.00 0.00 0.00 0.00 0.00 0.00 0.00 0.00 0.00 0.00 0.00 0.00 0.00 0.00 0.00 0.00 0.00 0.00 0.00 0.00 0.00 0.00 0.00 0.00 0.00 0.00 0.00 0.00 0.00 0.00 0.00 0.00 0.00 0.00 0.00 0.00 0.00 0.00 0.00 0.00 0.00 0.00 0.00 0.00
0.00 0.00 0.00 0.00 0.00 0.00 0.00 0.00 0.00 0.00 0.00 0.00 0.00 0.00 0.00 0.00 0.00 0.00 0.00 0.00 0.00 0.00 0.00 0.00 0.00 0.00 0.00 0.00 0.00 0.00 0.00 0.00 0.00 0.00 0.00 0.00 0.00 0.00 0.00 0.00 0.00 0.00 0.00 0.00 0.00 0.00 0.00
0.00 0.00 0.00 0.00 0.00 0.00 0.00 0.00 0.00 0.00 0.00 0.00 0.00 0.00 0.00 0.00 0.00 0.00 0.00 0.00 0.00 0.00 0.00 0.00 0.00 0.00 0.00 0.00 0.00 0.00 0.00 0.00 0.00 0.00 0.00 0.00 0.00 0.00 0.00 0.00 0.00 0.00 0.00 0.00 0.00 0.00 0.00
0.00 0.00 0.00 0.00 0.00 0.00 0.00 0.00 0.00 0.00 0.00 0.00 0.00 0.00 0.00 0.00 0.00 0.00 0.00 0.00 0.00 0.00 0.00 0.00 0.00 0.00 0.00 0.00 0.00 0.00 0.00 0.00 0.00 0.00 0.00 0.00 0.00 0.00 0.00 0.00 0.00 0.00 0.00 0.00 0.00 0.00 0.00
0.00 0.00 0.00 0.00 0.00 0.00 0.00 0.00 0.00 0.00 0.00 0.00 0.00 0.00 0.00 0.00 0.00 0.00 0.00 0.00 0.00 0.00 0.00 0.00 0.00 0.00 0.00 0.00 0.00 0.00 0.00 0.00 0.00 0.00 0.00 0.00 0.00 0.00 0.00 0.00 0.00 0.00 0.00 0.00 0.00 0.00 0.00
0.00 0.00 0.00 0.00 0.00 0.00 0.00 0.00 0.00 0.00 0.00 0.00 0.00 0.00 0.00 0.00 0.00 0.00 0.00 0.00 0.00 0.00 0.00 0.00 0.00 0.00 0.00 0.00 0.00 0.00 0.00 0.00 0.00 0.00 0.00 0.00 0.00 0.00 0.00 0.00 0.00 0.00 0.00 0.00 0.00 0.00 0.00
0.00 0.00 0.00 0.00 0.00 0.00 0.00 0.00 0.00 0.00 0.00 0.00 0.00 0.00 0.00 0.00 0.00 0.00 0.00 0.00 0.00 0.01 0.00 0.00 0.00 0.00 0.00 0.00 0.00 0.00 0.00 0.00 0.00 0.00 0.00 0.00 0.00 0.00 0.00 0.00 0.00 0.00 0.00 0.00 0.00 0.00 0.00
0.00 0.00 0.00 0.00 0.00 0.00 0.00 0.00 0.00 0.00 0.00 0.00 0.00 0.00 0.00 0.00 0.00 0.00 0.00 0.00 0.01 0.01 0.00 0.00 0.00 0.00 0.00 0.00 0.00 0.00 0.00 0.00 0.00 0.00 0.01 0.00 0.00 0.00 0.00 0.00 0.00 0.00 0.00 0.00 0.00 0.00 0.00
0.00 0.00 0.00 0.00 0.00 0.00 0.00 0.00 0.00 0.00 0.00 0.00 0.00 0.00 0.00 0.00 0.00 0.00 0.00 0.00 0.01 0.00 0.00 0.00 0.00 0.00 0.00 0.01 0.01 0.01 0.02 0.00 0.00 0.02 0.04 0.04 0.02 0.00 0.00 0.00 0.00 0.00 0.00 0.00 0.00 0.00 0.00
0.00 0.00 0.00 0.00 0.00 0.00 0.00 0.00 0.00 0.00 0.00 0.00 0.00 0.00 0.00 0.00 0.00 0.00 0.00 0.00 0.00 0.00 0.00 0.00 0.00 0.00 0.03 0.01 0.02 0.02 0.01 0.00 0.00 0.00 0.01 0.03 0.04 0.03 0.00 0.00 0.00 0.00 0.00 0.00 0.00 0.00 0.00
0.00 0.00 0.00 0.00 0.00 0.00 0.00 0.00 0.00 0.00 0.00 0.00 0.00 0.00 0.00 0.00 0.00 0.00 0.00 0.00 0.00 0.00 0.00 0.00 0.00 0.01 0.01 0.00 0.01 0.04 0.01 0.00 0.00 0.00 0.00 0.01 0.01 0.01 0.00 0.00 0.00 0.00 0.00 0.00 0.01 0.01 0.00
0.00 0.00 0.00 0.00 0.00 0.00 0.00 0.00 0.00 0.00 0.00 0.00 0.00 0.00 0.00 0.00 0.00 0.00 0.01 0.00 0.00 0.00 0.00 0.00 0.00 0.00 0.00 0.00 0.01 0.02 0.01 0.00 0.00 0.00 0.00 0.00 0.02 0.02 0.01 0.01 0.00 0.00 0.00 0.01 0.00 0.00 0.00
0.00 0.00 0.00 0.00 0.00 0.00 0.00 0.00 0.00 0.00 0.00 0.00 0.00 0.00 0.00 0.00 0.00 0.00 0.01 0.00 0.00 0.00 0.00 0.00 0.00 0.00 0.00 0.00 0.01 0.01 0.02 0.00 0.00 0.00 0.00 0.00 0.01 0.03 0.02 0.01 0.00 0.00 0.01 0.01 0.02 0.00 0.01
0.00 0.00 0.00 0.00 0.00 0.00 0.00 0.00 0.00 0.00 0.00 0.00 0.00 0.00 0.00 0.00 0.01 0.00 0.00 0.00 0.00 0.00 0.00 0.00 0.00 0.00 0.01 0.01 0.01 0.03 0.06 0.01 0.00 0.00 0.00 0.00 0.02 0.04 0.02 0.00 0.00 0.00 0.00 0.00 0.01 0.01 0.00
0.00 0.00 0.00 0.00 0.00 0.00 0.00 0.00 0.00 0.00 0.00 0.00 0.00 0.00 0.00 0.00 0.00 0.00 0.00 0.00 0.00 0.00 0.00 0.00 0.01 0.01 0.00 0.00 0.00 0.01 0.03 0.00 0.00 0.00 0.01 0.01 0.04 0.06 0.07 0.04 0.02 0.01 0.00 0.00 0.01 0.01 0.00
0.00 0.00 0.00 0.00 0.00 0.00 0.00 0.00 0.00 0.00 0.00 0.00 0.00 0.00 0.00 0.00 0.00 0.00 0.00 0.00 0.00 0.00 0.00 0.00 0.01 0.00 0.00 0.01 0.00 0.00 0.02 0.00 0.00 0.00 0.00 0.01 0.03 0.03 0.02 0.01 0.01 0.02 0.01 0.00 0.00 0.01 0.01
0.00 0.00 0.00 0.00 0.00 0.00 0.00 0.00 0.00 0.00 0.00 0.00 0.00 0.00 0.00 0.00 0.00 0.00 0.00 0.00 0.00 0.00 0.00 0.00 0.01 0.02 0.01 0.02 0.00 0.01 0.00 0.00 0.00 0.00 0.00 0.00 0.01 0.01 0.01 0.01 0.01 0.02 0.01 0.00 0.01 0.00 0.00
0.00 0.00 0.01 0.00 0.00 0.00 0.00 0.00 0.00 0.00 0.00 0.00 0.00 0.00 0.00 0.00 0.00 0.00 0.00 0.00 0.00 0.00 0.00 0.00 0.00 0.00 0.02 0.01 0.01 0.00 0.01 0.01 0.01 0.00 0.00 0.00 0.00 0.00 0.00 0.00 0.00 0.00 0.00 0.00 0.00 0.00 0.00
0.01 0.00 0.00 0.00 0.00 0.00 0.00 0.00 0.00 0.00 0.00 0.00 0.00 0.00 0.00 0.00 0.00 0.00 0.00 0.00 0.00 0.00 0.00 0.00 0.00 0.00 0.00 0.00 0.00 0.00 0.00 0.00 0.00 0.00 0.00 0.00 0.00 0.00 0.00 0.00 0.00 0.00 0.00 0.00 0.00 0.00 0.00
0.01 0.00 0.00 0.00 0.00 0.00 0.00 0.00 0.00 0.00 0.00 0.00 0.00 0.00 0.00 0.00 0.00 0.00 0.00 0.00 0.00 0.00 0.00 0.00 0.00 0.00 0.00 0.00 0.00 0.00 0.00 0.00 0.00 0.00 0.00 0.00 0.00 0.00 0.00 0.00 0.00 0.00 0.00 0.00 0.00 0.00 0.00
0.01 0.01 0.00 0.00 0.00 0.00 0.00 0.00 0.00 0.00 0.00 0.00 0.00 0.00 0.00 0.00 0.00 0.00 0.00 0.00 0.00 0.00 0.00 0.00 0.00 0.00 0.00 0.00 0.00 0.00 0.00 0.00 0.00 0.00 0.00 0.00 0.00 0.00 0.00 0.00 0.00 0.01 0.00 0.00 0.00 0.00 0.00
0.00 0.00 0.00 0.01 0.00 0.00 0.00 0.00 0.00 0.00 0.01 0.00 0.00 0.00 0.00 0.01 0.00 0.00 0.00 0.00 0.00 0.00 0.00 0.00 0.00 0.00 0.00 0.00 0.00 0.00 0.00 0.00 0.00 0.00 0.00 0.00 0.00 0.00 0.00 0.00 0.01 0.01 0.00 0.00 0.00 0.01 0.00
0.00 0.00 0.01 0.01 0.00 0.00 0.00 0.00 0.00 0.00 0.01 0.00 0.00 0.00 0.00 0.01 0.00 0.00 0.00 0.00 0.00 0.00 0.00 0.00 0.00 0.00 0.00 0.00 0.01 0.00 0.01 0.00 0.00 0.00 0.00 0.00 0.00 0.00 0.00 0.00 0.01 0.00 0.00 0.00 0.01 0.01 0.00
0.00 0.00 0.01 0.01 0.00 0.00 0.00 0.00 0.00 0.00 0.01 0.02 0.01 0.00 0.00 0.01 0.00 0.00 0.00 0.00 0.00 0.00 0.00 0.00 0.00 0.00 0.00 0.00 0.01 0.00 0.01 0.01 0.02 0.01 0.01 0.01 0.02 0.01 0.01 0.01 0.01 0.00 0.00 0.00 0.00 0.00 0.00
0.00 0.00 0.01 0.01 0.01 0.01 0.00 0.00 0.00 0.00 0.00 0.02 0.01 0.00 0.00 0.01 0.00 0.00 0.00 0.00 0.00 0.00 0.00 0.00 0.00 0.01 0.01 0.01 0.00 0.01 0.02 0.01 0.01 0.04 0.01 0.01 0.01 0.01 0.01 0.00 0.00 0.00 0.00 0.00 0.00 0.00 0.00
MSLP
1020.80 1021.04 1021.18 1021.41 1021.53 1021.50 1021.61 1021.77 1021.61 1021.39 1021.29 1021.16 1020.99 1020.68 1020.49 1020.43 1019.86 1019.58 1019.24 1018.61 1018.26 1017.82 1017.41 1017.09 1016.89 1016.90 1016.17 1013.58 1010.61 1009.76 1010.36 1010.13 1009.91 1009.06 1008.35 1007.50 1006.78 1005.93 1004.34 1004.01 1003.52 1001.84 1001.94 1001.86 1001.54 1001.14 1000.99
1020.55 1020.92 1021.12 1021.35 1021.53 1021.40 1021.39 1021.61 1021.57 1021.35 1021.25 1021.08 1021.03 1020.75 1020.47 1020.34 1019.97 1019.76 1019.24 1018.45 1017.97 1017.51 1017.13 1016.77 1016.30 1016.42 1015.66 1012.55 1009.63 1009.19 1009.37 1009.45 1009.04 1008.23 1007.61 1007.03 1005.87 1005.16 1004.30 1003.53 1002.59 1002.23 1001.81 1001.46 1001.51 1001.05 1001.76
1020.35 1020.65 1020.84 1021.23 1021.43 1021.41 1021.31 1021.50 1021.41 1021.40 1021.22 1020.99 1020.90 1020.64 1020.61 1020.28 1019.87 1019.42 1018.81 1018.25 1017.47 1016.95 1016.39 1016.01 1015.73 1014.98 1013.72 1010.28 1009.30 1008.80 1008.75 1008.84 1008.73 1008.41 1007.41 1006.52 1005.81 1005.09 1004.25 1003.27 1002.74 1002.46 1001.88 1001.02 1000.87 1001.14 1000.97
1020.42 1020.54 1020.81 1021.09 1021.28 1021.51 1021.42 1021.30 1021.30 1021.40 1021.25 1020.82 1020.81 1020.59 1020.51 1020.21 1019.78 1019.20 1018.62 1017.87 1016.92 1016.06 1015.64 1015.14 1014.77 1014.09 1011.16 1009.03 1009.09 1008.83 1008.65 1008.09 1008.15 1008.25 1007.71 1007.08 1006.06 1005.30 1004.33 1003.49 1003.02 1002.41 1002.06 1000.44 1000.17 1000.66 1000.71
1020.42 1020.68 1020.83 1020.97 1021.30 1021.43 1021.40 1021.31 1021.19 1021.28 1021.00 1020.77 1020.70 1020.70 1020.18 1019.75 1019.41 1018.97 1018.34 1017.11 1015.80 1015.24 1014.93 1014.43 1013.95 1013.52 1009.99 1008.90 1008.86 1007.98 1008.24 1007.59 1007.21 1006.85 1007.07 1007.13 1006.79 1005.78 1004.66 1003.59 1002.65 1001.76 1000.22 999.74 999.77 999.39 999.41
1020.21 1020.57 1020.73 1020.94 1021.07 1021.24 1021.28 1021.41 1020.98 1021.05 1021.01 1020.93 1020.66 1020.32 1020.11 1019.47 1019.24 1018.64 1017.73 1015.92 1014.04 1014.34 1013.95 1012.99 1012.11 1012.86 1009.48 1007.94 1007.38 1007.51 1007.63 1007.14 1006.93 1006.61 1006.46 1006.35 1005.82 1004.87 1004.03 1002.37 1000.29 999.69 999.84 999.02 998.02 997.89 998.04
1020.17 1020.51 1020.68 1020.89 1020.89 1021.03 1020.97 1021.16 1021.10 1021.12 1021.16 1020.94 1020.48 1020.43 1019.99 1019.62 1019.21 1018.51 1017.09 1013.90 1013.29 1012.59 1012.54 1012.39 1010.77 1009.56 1007.93 1007.65 1007.66 1006.97 1007.09 1006.66 1006.44 1006.00 1004.96 1004.86 1004.52 1002.25 1000.84 1001.30 1000.66 1000.05 998.98 998.13 997.77 997.73 997.66
1020.23 1020.40 1020.62 1020.84 1020.89 1020.96 1020.88 1021.07 1020.99 1021.14 1020.80 1020.76 1020.75 1020.38 1020.09 1019.56 1018.96 1018.03 1016.76 1015.25 1015.87 1016.56 1013.46 1011.63 1010.05 1009.10 1008.45 1008.63 1007.33 1006.59 1006.79 1005.94 1005.37 1004.52 1004.28 1003.62 1002.23 1001.10 1001.48 1001.01 1001.04 1000.56 999.94 999.13 998.60 998.00 998.36
1020.12 1020.47 1020.48 1020.71 1020.71 1020.83 1021.00 1020.95 1020.86 1020.93 1020.72 1020.83 1020.76 1020.50 1020.20 1019.44 1018.52 1017.49 1016.39 1016.20 1015.93 1015.77 1014.41 1008.76 1007.36 1007.03 1006.91 1007.12 1006.12 1005.49 1005.97 1005.03 1004.45 1003.52 1002.55 1001.49 1000.49 1001.44 1000.94 1000.74 1000.84 1000.99 1000.80 1000.40 999.49 998.75 998.50
1020.03 1020.45 1020.59 1020.69 1020.56 1020.84 1021.08 1021.01 1020.77 1020.80 1020.75 1020.74 1020.73 1020.50 1020.11 1019.08 1018.34 1016.91 1015.68 1016.36 1016.29 1016.06 1013.87 1007.27 1006.19 1006.03 1006.40 1006.14 1005.27 1004.64 1004.12 1004.78 1003.77 1002.70 1001.45 1000.65 1000.40 1000.14 1000.48 1000.60 1001.13 1001.02 1001.39 1001.19 1000.47 999.84 998.78
1019.68 1020.29 1020.54 1020.61 1020.49 1020.98 1021.02 1020.82 1020.77 1020.97 1020.84 1020.69 1020.70 1020.38 1019.76 1019.18 1018.15 1016.77 1016.62 1016.55 1016.45 1016.25 1011.83 1006.13 1005.63 1005.85 1005.64 1005.47 1004.80 1004.15 1003.26 1003.81 1002.68 1001.68 1001.32 1000.04 1000.02 999.81 1000.02 1000.56 1001.09 1001.29 1001.52 1001.45 1001.12 1000.47 999.58
1019.53 1020.03 1020.26 1020.40 1020.60 1020.92 1020.85 1020.68 1020.75 1020.95 1020.76 1020.50 1020.34 1019.93 1019.36 1017.47 1017.32 1016.92 1016.77 1016.79 1015.83 1014.76 1009.36 1006.65 1005.91 1006.01 1005.80 1004.60 1003.77 1003.31 1002.95 1003.26 1002.84 1001.66 1000.55 999.95 1000.21 1000.03 1000.05 1000.95 1001.74 1001.99 1001.77 1001.89 1001.71 1000.75 999.10
1019.42 1019.75 1019.94 1020.30 1020.54 1020.54 1020.65 1020.71 1020.73 1020.71 1020.71 1020.31 1020.08 1019.41 1018.99 1018.02 1017.30 1017.13 1017.02 1015.48 1013.78 1011.74 1008.74 1007.80 1007.82 1006.81 1006.07 1005.17 1004.62 1003.30 1002.39 1002.20 1001.62 1001.15 1000.98 1000.36 1000.40 1000.24 1000.48 1000.81 1001.39 1001.58 1001.47 1001.41 1001.18 999.93 998.21
1019.06 1019.35 1020.03 1020.28 1020.46 1020.55 1020.49 1020.78 1020.73 1020.58 1020.44 1020.16 1019.67 1019.11 1018.63 1017.62 1017.70 1017.46 1016.17 1014.16 1012.53 1011.05 1010.23 1009.70 1009.25 1008.48 1006.85 1006.90 1005.34 1004.65 1001.93 1001.24 1001.22 1000.02 999.86 1000.13 1001.70 1000.68 1000.73 1000.58 1000.89 1001.02 1001.05 1000.25 1000.05 998.90 997.29
1018.76 1019.15 1019.80 1020.00 1020.32 1020.37 1020.42 1020.69 1020.67 1020.35 1020.20 1019.80 1019.19 1017.70 1017.29 1017.82 1017.74 1017.11 1015.30 1013.38 1012.60 1012.18 1011.70 1011.10 1010.08 1008.63 1007.75 1007.66 1007.72 1005.35 1002.12 1000.31 1000.12 999.52 1000.94 1000.10 1001.22 1001.93 1001.09 1000.80 1001.67 1001.68 1001.16 1000.62 1000.66 999.28 997.62
1018.57 1019.06 1019.40 1019.81 1020.13 1020.20 1020.22 1020.65 1020.60 1020.25 1019.90 1019.62 1018.32 1017.33 1017.14 1017.92 1017.72 1016.66 1014.96 1013.70 1012.93 1012.70 1012.41 1011.90 1011.48 1010.39 1009.81 1008.68 1007.49 1004.95 1001.07 999.52 999.43 999.20 1000.86 999.77 1000.85 1001.64 1001.24 1001.15 1000.86 1000.71 1000.65 1001.05 1000.65 999.13 997.89
1018.51 1018.77 1019.32 1019.77 1019.93 1019.95 1020.11 1020.36 1020.41 1020.14 1019.76 1019.60 1018.11 1016.59 1017.32 1017.70 1017.44 1015.89 1014.93 1013.77 1013.40 1013.16 1012.88 1012.87 1012.29 1011.60 1010.92 1009.71 1008.12 1005.30 1000.92 999.61 999.28 999.79 1000.03 1000.70 1000.56 1001.60 1001.47 1000.73 1000.27 1000.78 1000.65 1001.03 1000.54 999.94 998.45
1018.31 1018.66 1019.16 1019.45 1019.76 1020.21 1020.30 1020.08 1019.97 1020.03 1019.69 1019.66 1017.78 1016.64 1017.26 1017.35 1016.42 1015.21 1014.36 1014.08 1013.52 1013.02 1012.68 1012.39 1012.28 1011.70 1011.11 1009.88 1008.36 1006.49 1002.55 1000.10 999.64 999.81 999.98 1000.07 1000.29 1000.97 1001.21 1000.22 999.83 1000.07 1000.21 1000.71 1000.55 1000.51 1000.03
1018.30 1018.49 1018.87 1019.35 1019.81 1020.02 1020.21 1019.97 1019.91 1019.95 1019.69 1018.44 1016.94 1016.36 1017.16 1016.99 1015.72 1014.81 1014.48 1013.94 1013.23 1013.04 1012.68 1012.47 1012.52 1012.26 1011.46 1010.02 1008.87 1006.80 1004.19 1002.42 1001.47 1000.84 1000.82 1000.58 1000.75 1001.07 1001.47 1001.00 1000.75 1000.53 1000.57 1001.07 1001.72 1001.47 1000.71
1017.98 1018.31 1018.71 1019.26 1019.56 1019.95 1019.89 1020.01 1020.01 1019.66 1019.79 1019.22 1017.89 1016.68 1016.16 1016.22 1016.50 1015.33 1014.69 1013.83 1013.30 1013.28 1013.13 1013.16 1013.03 1012.40 1011.16 1010.08 1009.20 1007.58 1005.67 1004.88 1003.54 1002.86 1002.48 1001.86 1001.29 1001.08 1000.39 999.81 1000.50 1000.80 1001.36 1001.80 1001.78 1001.78 1001.35
1017.70 1018.10 1018.62 1019.28 1019.47 1019.55 1019.86 1019.91 1019.91 1019.66 1019.80 1019.50 1018.08 1017.00 1016.83 1016.02 1015.64 1015.69 1014.97 1014.00 1013.60 1013.79 1013.74 1013.18 1012.61 1011.66 1011.17 1010.27 1009.25 1008.11 1007.10 1006.00 1004.87 1004.47 1003.46 1002.80 1002.36 1002.35 1001.20 1000.51 1000.87 1001.35 1001.82 1002.11 1002.31 1002.55 1002.56
1017.51 1017.98 1018.67 1018.94 1019.30 1019.59 1019.68 1019.65 1019.87 1019.84 1019.68 1018.74 1018.11 1016.47 1016.63 1015.97 1016.01 1015.51 1015.03 1014.32 1013.99 1013.96 1013.87 1013.00 1012.15 1011.53 1010.72 1010.47 1009.93 1009.11 1008.08 1007.23 1007.01 1006.01 1004.89 1004.12 1003.02 1002.55 1002.22 1001.97 1001.91 1002.17 1002.59 1002.90 1003.21 1003.44 1003.37
1017.33 1017.88 1018.45 1018.67 1019.06 1019.20 1019.61 1019.60 1019.73 1019.74 1019.79 1018.17 1017.69 1017.55 1016.68 1016.00 1015.30 1015.03 1015.02 1014.74 1014.13 1013.64 1013.01 1012.81 1012.23 1011.54 1010.50 1010.47 1009.69 1009.14 1008.27 1007.83 1007.06 1006.29 1006.21 1005.31 1004.17 1003.46 1003.52 1003.28 1003.16 1003.32 1003.60 1003.40 1003.82 1005.36 1005.93
1017.05 1017.72 1018.06 1018.43 1018.70 1019.14 1019.43 1019.39 1019.73 1019.67 1019.68 1018.48 1017.61 1017.13 1016.46 1015.58 1015.22 1015.16 1015.12 1014.64 1013.98 1013.57 1013.07 1012.23 1012.02 1011.63 1010.95 1010.28 1008.63 1007.67 1007.66 1006.96 1006.36 1005.94 1005.41 1004.83 1004.65 1003.79 1004.03 1004.16 1003.98 1004.83 1004.72 1004.95 1005.40 1007.31 1008.58
1016.89 1017.30 1017.77 1018.26 1018.47 1018.93 1019.37 1019.23 1019.63 1019.60 1019.68 1019.04 1018.21 1017.92 1016.98 1016.41 1015.49 1015.36 1015.29 1014.66 1013.86 1013.30 1012.73 1012.41 1012.32 1012.13 1011.21 1009.66 1008.52 1007.26 1006.96 1006.88 1006.16 1006.10 1005.68 1005.30 1004.59 1004.57 1004.40 1004.31 1005.73 1006.28 1006.64 1006.76 1006.59 1009.40 1010.28
1016.60 1017.11 1017.53 1018.03 1018.30 1018.85 1018.96 1019.21 1019.50 1019.54 1019.57 1019.56 1018.79 1018.89 1018.37 1017.45 1015.57 1016.04 1015.43 1014.83 1014.05 1013.37 1012.79 1012.46 1012.43 1012.07 1011.27 1009.58 1008.67 1007.79 1007.48 1006.99 1006.31 1005.81 1006.05 1005.87 1005.41 1005.10 1005.42 1005.93 1007.23 1008.86 1008.41 1008.37 1008.21 1010.83 1012.46
1016.33 1016.81 1017.25 1017.78 1018.23 1018.39 1018.80 1019.24 1019.51 1019.54 1019.57 1019.91 1020.05 1019.95 1019.14 1018.13 1016.49 1016.50 1015.72 1015.67 1015.06 1014.36 1013.53 1012.74 1012.86 1012.24 1012.02 1010.79 1009.81 1009.05 1008.23 1007.93 1006.98 1006.57 1006.49 1006.43 1006.47 1006.47 1007.26 1007.84 1010.03 1012.08 1011.15 1009.69 1010.56 1014.54 1014.48
1016.00 1016.53 1017.08 1017.52 1017.83 1018.30 1018.78 1019.17 1019.42 1019.54 1019.62 1019.62 1019.48 1019.66 1019.55 1018.80 1017.23 1016.84 1016.55 1016.20 1015.55 1014.89 1014.51 1014.13 1013.24 1013.11 1013.11 1012.20 1011.90 1011.48 1010.26 1009.37 1008.64 1008.21 1008.25 1008.27 1008.60 1008.55 1009.30 1010.53 1013.02 1014.20 1012.13 1013.37 1015.74 1015.99 1016.05
1015.87 1016.28 1016.81 1017.18 1017.68 1018.20 1018.63 1018.95 1019.29 1019.42 1019.61 1019.76 1019.80 1019.88 1020.30 1019.69 1017.94 1017.67 1017.11 1016.73 1016.49 1016.16 1016.07 1015.02 1014.95 1014.67 1014.43 1013.97 1013.86 1013.22 1011.80 1010.67 1010.05 1009.19 1009.82 1010.37 1011.50 1011.91 1013.73 1015.02 1016.23 1016.70 1016.87 1017.33 1016.98 1017.01 1017.17
Thickness
5564 5562 5561 5559 5558 5558 5557 5554 5554 5554 5553 5551 5550 5551 5551 5549 5552 5552 5552 5555 5556 5558 5559 5559 5559 5559 5567 5587 5608 5606 5605 5609 5614 5621 5624 5630 5634 5642 5653 5665 5672 5685 5689 5695 5702 5705 5706
5556 5553 5551 5548 5547 5548 5548 5545 5543 5543 5541 5541 5539 5540 5541 5539 5541 5540 5542 5546 5547 5549 5548 5547 5549 5547 5551 5574 5601 5598 5599 5598 5602 5612 5616 5621 5629 5640 5646 5654 5663 5677 5680 5685 5689 5693 5688
5547 5545 5543 5540 5537 5537 5538 5536 5534 5532 5532 5533 5532 5532 5529 5529 5531 5532 5536 5536 5540 5540 5542 5539 5538 5542 5551 5580 5582 5586 5588 5588 5590 5592 5600 5614 5620 5622 5637 5640 5660 5660 5656 5674 5680 5682 5681
5535 5535 5534 5532 5530 5527 5527 5527 5525 5522 5522 5525 5523 5523 5519 5519 5521 5524 5525 5526 5529 5534 5534 5531 5530 5531 5555 5572 5567 5567 5567 5576 5578 5577 5583 5593 5605 5610 5618 5635 5636 5637 5643 5647 5676 5673 5678
5523 5521 5522 5522 5519 5518 5516 5517 5517 5513 5515 5517 5515 5510 5512 5513 5513 5513 5513 5520 5527 5527 5526 5522 5522 5518 5542 5555 5546 5553 5551 5553 5562 5569 5571 5573 5580 5588 5599 5605 5612 5628 5636 5646 5654 5679 5677
5513 5511 5511 5510 5510 5508 5507 5505 5509 5506 5506 5505 5505 5505 5502 5506 5503 5504 5507 5518 5527 5520 5523 5518 5519 5503 5525 5530 5534 5535 5534 5538 5538 5544 5548 5555 5564 5573 5584 5599 5609 5633 5627 5647 5659 5676 5678
5501 5500 5500 5499 5501 5500 5499 5497 5497 5496 5495 5495 5497 5494 5494 5493 5491 5492 5500 5522 5523 5525 5523 5510 5511 5513 5523 5516 5517 5523 5520 5522 5525 5530 5539 5549 5547 5571 5608 5606 5622 5626 5637 5646 5660 5670 5667
5487 5488 5488 5488 5490 5490 5491 5489 5490 5487 5489 5487 5485 5486 5483 5483 5482 5485 5490 5496 5482 5468 5485 5499 5502 5499 5499 5493 5499 5510 5507 5509 5518 5525 5534 5539 5545 5593 5591 5598 5599 5604 5608 5622 5638 5656 5647
5476 5475 5478 5478 5481 5481 5481 5482 5482 5480 5481 5479 5477 5474 5472 5474 5477 5480 5481 5474 5466 5456 5452 5514 5510 5505 5500 5493 5497 5505 5497 5509 5514 5524 5536 5544 5574 5571 5577 5582 5581 5583 5589 5600 5614 5632 5642
5466 5466 5468 5470 5472 5472 5471 5473 5474 5474 5473 5472 5467 5465 5464 5468 5471 5474 5475 5456 5445 5436 5433 5500 5497 5496 5486 5487 5489 5500 5502 5499 5508 5519 5539 5549 5566 5567 5567 5570 5574 5568 5590 5591 5598 5604 5609
5460 5458 5459 5460 5464 5463 5463 5466 5466 5464 5464 5462 5458 5457 5458 5458 5461 5463 5452 5440 5430 5420 5451 5498 5484 5478 5477 5477 5483 5489 5501 5493 5505 5523 5533 5545 5552 5557 5559 5565 5569 5569 5580 5581 5588 5592 5601
5453 5452 5452 5453 5455 5455 5457 5460 5459 5456 5457 5456 5454 5453 5453 5462 5455 5449 5437 5426 5424 5422 5460 5475 5476 5463 5462 5476 5484 5492 5495 5493 5505 5518 5541 5551 5556 5557 5562 5560 5557 5567 5567 5571 5576 5585 5584
5445 5445 5446 5446 5449 5451 5452 5452 5451 5451 5449 5450 5448 5451 5449 5447 5445 5433 5423 5428 5438 5429 5464 5457 5443 5453 5458 5467 5470 5486 5490 5490 5499 5507 5510 5539 5542 5554 5557 5550 5557 5559 5560 5553 5555 5571 5588
5440 5440 5437 5440 5442 5443 5446 5444 5444 5445 5444 5444 5445 5446 5443 5441 5431 5421 5421 5434 5421 5439 5433 5432 5429 5438 5457 5444 5460 5457 5496 5498 5507 5529 5536 5534 5511 5540 5550 5551 5550 5556 5561 5566 5560 5584 5608
5432 5434 5432 5435 5436 5438 5440 5438 5438 5440 5439 5440 5441 5448 5445 5431 5422 5417 5426 5426 5419 5416 5417 5414 5428 5442 5449 5450 5436 5439 5491 5512 5520 5535 5506 5538 5518 5529 5544 5553 5547 5541 5549 5578 5563 5590 5599
5426 5426 5428 5429 5430 5433 5434 5431 5432 5434 5435 5435 5443 5447 5439 5423 5416 5416 5423 5415 5419 5419 5417 5419 5405 5430 5415 5430 5432 5466 5512 5527 5527 5541 5523 5543 5527 5532 5541 5548 5556 5556 5569 5552 5564 5572 5584
5417 5420 5420 5421 5424 5428 5428 5427 5427 5428 5430 5428 5441 5450 5431 5420 5415 5424 5412 5420 5420 5420 5419 5406 5407 5409 5409 5421 5436 5470 5522 5530 5535 5532 5539 5530 5536 5527 5537 5541 5547 5546 5551 5556 5571 5578 5587
5411 5413 5414 5416 5418 5417 5419 5423 5425 5423 5425 5423 5438 5439 5427 5419 5424 5429 5428 5425 5425 5425 5428 5423 5420 5416 5416 5431 5443 5452 5501 5529 5536 5535 5533 5543 5540 5525 5529 5555 5566 5562 5562 5564 5563 5566 5578
5402 5407 5408 5409 5409 5411 5413 5418 5418 5417 5419 5429 5442 5442 5424 5420 5426 5432 5432 5432 5437 5429 5430 5427 5412 5412 5420 5429 5439 5446 5492 5510 5519 5527 5529 5539 5532 5523 5517 5540 5549 5549 5561 5562 5555 5561 5567
5397 5400 5401 5401 5404 5404 5409 5410 5410 5415 5412 5416 5422 5424 5432 5426 5416 5426 5425 5434 5435 5434 5429 5424 5414 5415 5430 5434 5431 5447 5475 5486 5501 5509 5512 5525 5532 5535 5540 5551 5551 5545 5548 5553 5558 5554 5562
5391 5392 5393 5392 5397 5401 5402 5403 5405 5408 5406 5408 5416 5419 5418 5419 5423 5417 5424 5436 5434 5419 5424 5429 5423 5441 5430 5431 5437 5446 5455 5479 5494 5496 5510 5518 5517 5520 5540 5552 5552 5546 5544 5547 5547 5551 5549
5383 5385 5384 5388 5391 5392 5396 5399 5398 5399 5401 5413 5399 5427 5421 5425 5418 5419 5417 5429 5429 5427 5420 5423 5439 5446 5450 5444 5440 5441 5455 5465 5459 5481 5494 5506 5516 5527 5526 5538 5541 5537 5539 5539 5541 5546 5556
5377 5377 5378 5383 5385 5389 5389 5393 5392 5393 5394 5410 5412 5410 5417 5414 5426 5425 5418 5419 5425 5434 5440 5440 5441 5442 5452 5443 5450 5452 5466 5471 5478 5483 5474 5486 5507 5516 5509 5524 5527 5523 5525 5535 5539 5523 5529
5371 5370 5374 5378 5381 5382 5384 5387 5386 5388 5388 5399 5408 5411 5414 5418 5424 5420 5416 5421 5428 5432 5433 5445 5441 5439 5447 5451 5464 5474 5473 5482 5488 5491 5497 5500 5504 5519 5511 5514 5513 5514 5525 5526 5521 5509 5503
5364 5367 5370 5372 5376 5377 5377 5382 5380 5382 5382 5388 5395 5397 5406 5402 5418 5414 5411 5416 5428 5434 5440 5440 5439 5439 5449 5461 5467 5479 5482 5478 5488 5490 5494 5501 5509 5507 5512 5523 5513 5507 5506 5507 5514 5482 5492
5359 5362 5364 5367 5370 5371 5375 5375 5374 5376 5377 5379 5385 5384 5387 5391 5415 5403 5407 5413 5420 5428 5435 5440 5440 5441 5449 5468 5473 5478 5477 5482 5487 5497 5499 5500 5507 5513 5514 5513 5504 5481 5497 5502 5509 5480 5466
5354 5357 5360 5362 5363 5368 5369 5367 5367 5370 5372 5371 5370 5370 5377 5381 5403 5397 5404 5400 5407 5414 5423 5436 5430 5437 5443 5456 5466 5474 5479 5482 5486 5490 5492 5496 5499 5503 5503 5511 5490 5442 5466 5494 5496 5448 5441
5350 5352 5354 5356 5360 5361 5361 5361 5362 5364 5366 5367 5370 5367 5370 5375 5392 5392 5392 5391 5399 5408 5408 5417 5428 5428 5426 5439 5443 5444 5459 5470 5475 5482 5479 5482 5478 5492 5499 5499 5480 5424 5476 5462 5426 5421 5425
5344 5347 5350 5353 5354 5354 5355 5357 5357 5360 5360 5361 5362 5362 5359 5365 5382 5379 5382 5384 5386 5390 5390 5405 5403 5408 5414 5418 5421 5426 5442 5460 5464 5461 5471 5462 5449 5452 5434 5425 5406 5406 5407 5405 5417 5417 5415